{"data":{"norad_id":52670,"intl_designator":"2022-053Q","name":"STARLINK-4075","alt_names":[],"object_type":"PAYLOAD","status":"ACTIVE","operator":null,"country":"US","launch_date":"2022-05-18","launch_site_code":"AFETR","launch_vehicle":null,"mission":null,"orbit_class":"UNKNOWN","rcs_meters":null,"size_class":null,"mass_kg":null,"dimensions":null,"purposes":["comms"],"wikipedia_slug":null,"has_3d_model":false,"image_url":null,"decayed_at":null,"tle_current":{"epoch":"2026-09-19T19:39:03.087072Z","epoch_age_seconds":125330,"freshness":"FRESH","line1":"1 52670U 22053Q   26262.81878573  .00004020  00000+0  27045-3 0  9993","line2":"2 52670  53.1621   2.0481 0001584  63.1287 296.9866 15.08844970240356","mean_motion":15.0884497,"eccentricity":0.0001584,"inclination_deg":53.1621,"raan_deg":2.0481,"arg_perigee_deg":63.1287,"mean_anomaly_deg":296.9866,"bstar":0.00027045,"rev_number":24035,"period_min":95.437240315021,"perigee_km":538.63240785677,"apogee_km":540.8239875514,"semimajor_km":6917.8651977041,"source":"CELESTRAK","updated_at":"2026-09-20T09:00:40.102935Z"}}}